Location: Olsztyn
(53.7767°N, 20.4765°E)
Time: 19:08:27
(UTC+02:00)

Envisat - Pass Details

Date: 01 March 2024
Orbit: 762 x 764 km, 98.3° (Epoch: 20 April)

Event Time Altitude Azimuth Distance (km) Brightness Sun altitude
Rises 02:58:23 0° 17° (NNE) 3,246 6.9 -30.3°
Reaches altitude 10° 03:00:44 10° 21° (NNE) 2,314 6.1 -30.0°
Enters shadow 03:05:43 60° 98° (E) 878 3.4 -29.4°
